This is the latest recevied weather packets stored in our database for station/object KC4KQE. If no packets are shown the sender has not sent any weather packets the latest 10 day(s).
| Time | Temp. | Humidity | Pressure | Rain* | Wind** | Luminosity | Snow |
|---|---|---|---|---|---|---|---|
| 1777643357 | 19.44° C | 44% | 1012.2 hPa | 0 mm | - | 141 W/m² | - |
| 1777643057 | 18.89° C | 44% | 1012.2 hPa | 0 mm | - | 125 W/m² | - |
| 1777642757 | 18.89° C | 44% | 1012.2 hPa | 0 mm | - | 105 W/m² | - |
| 1777642457 | 18.89° C | 45% | 1012.1 hPa | 0 mm | - | 90 W/m² | - |
| 1777642157 | 18.33° C | 46% | 1012 hPa | 0 mm | - | 72 W/m² | - |
| 1777641857 | 17.78° C | 47% | 1011.9 hPa | 0 mm | - | 58 W/m² | - |
| 1777641557 | 17.78° C | 47% | 1011.9 hPa | 0 mm | - | 25 W/m² | - |
| 1777641257 | 17.22° C | 46% | 1011.9 hPa | 0 mm | - | 23 W/m² | - |
| 1777640957 | 17.22° C | 46% | 1011.8 hPa | 0 mm | - | 19 W/m² | - |
| 1777640657 | 17.78° C | 46% | 1011.7 hPa | 0 mm | - | 18 W/m² | - |
| 1777640357 | 17.78° C | 45% | 1011.6 hPa | 0 mm | - | 14 W/m² | - |
| 1777640057 | 17.78° C | 45% | 1011.5 hPa | 0 mm | - | 11 W/m² | - |
| 1777639757 | 18.33° C | 44% | 1011.4 hPa | 0 mm | - | 9 W/m² | - |
| 1777639457 | 18.33° C | 44% | 1011.4 hPa | 0 mm | - | 5 W/m² | - |
| 1777639157 | 18.33° C | 43% | 1011.3 hPa | 0 mm | - | 0 W/m² | - |
| 1777638857 | 18.33° C | 43% | 1011.2 hPa | 0 mm | - | 0 W/m² | - |
| 1777638557 | 18.33° C | 43% | 1011.1 hPa | 0 mm | - | 0 W/m² | - |
| 1777638257 | 18.33° C | 43% | 1011 hPa | 0 mm | - | 0 W/m² | - |
| 1777637957 | 18.33° C | 42% | 1011 hPa | 0 mm | - | 0 W/m² | - |
| 1777637658 | 18.33° C | 42% | 1010.9 hPa | 0 mm | - | 0 W/m² | - |
| 1777637357 | 18.33° C | 42% | 1010.9 hPa | 0 mm | - | 0 W/m² | - |
| 1777637057 | 18.33° C | 41% | 1010.9 hPa | 0 mm | - | 0 W/m² | - |
| 1777636757 | 18.33° C | 41% | 1010.9 hPa | 0 mm | - | 0 W/m² | - |
| 1777636457 | 18.33° C | 41% | 1011 hPa | 0 mm | - | 0 W/m² | - |
| 1777636157 | 18.33° C | 41% | 1011 hPa | 0 mm | - | 0 W/m² | - |
* Rain latest hour (hover to see other rain measurements)
** Current wind speed in m/s (hover to see current wind gust speed)